�N����,����,�~����,�C��,���x,�C��,����,���ϕ���,�ő�u�ԕ���,�ő厞����,���˗�,�I�_���x,�n�����x,�ő啗���N��,DTYPE
"23/04/28","00:10",0.0,10.9,90.6,1017.8,325.2,1.8,2.6,326.3,0.00,9.5,15.2,"00:00:02",1
"23/04/28","00:20",0.0,10.3,91.1,1017.8,320.4,2.2,2.8,317.7,0.00,9.0,15.1,"00:10:32",1
"23/04/28","00:30",0.0,10.3,91.3,1017.5,312.1,2.0,2.6,324.7,0.00,9.0,15.1,"00:23:20",1
"23/04/28","00:40",0.0,10.3,91.8,1017.8,309.2,2.1,2.5,316.9,0.00,9.1,15.0,"00:35:04",1
"23/04/28","00:50",0.0,10.4,92.1,1018.0,299.6,2.2,2.5,314.6,0.00,9.2,14.7,"00:40:48",1
"23/04/28","01:00",0.0,10.5,92.3,1018.0,286.6,2.1,2.6,271.9,0.00,9.3,14.9,"00:56:24",1
"23/04/28","01:10",0.0,10.5,92.4,1018.0,311.8,2.1,2.5,308.6,0.00,9.4,14.9,"01:01:52",1
"23/04/28","01:20",0.0,9.8,92.5,1018.0,321.1,2.3,3.2,310.2,0.00,8.7,14.7,"01:12:08",1
"23/04/28","01:30",0.0,9.6,92.8,1018.0,308.5,1.6,2.2,316.0,0.00,8.5,14.5,"01:29:44",1
"23/04/28","01:40",0.0,9.6,93.0,1017.5,326.6,2.2,2.6,318.9,0.00,8.6,14.6,"01:34:48",1
"23/04/28","01:50",0.0,9.4,93.3,1017.5,297.7,1.8,2.2,324.4,0.00,8.4,14.6,"01:40:40",1
"23/04/28","02:00",0.0,9.7,93.5,1017.5,287.0,2.1,2.9,325.5,0.00,8.7,14.7,"01:58:48",1
"23/04/28","02:10",0.0,9.3,93.6,1017.5,328.7,2.2,3.6,310.4,0.00,8.4,14.7,"02:04:00",1
"23/04/28","02:20",0.0,9.2,93.8,1017.3,305.3,2.1,2.6,322.6,0.00,8.3,14.5,"02:10:08",1
"23/04/28","02:30",0.0,9.2,94.0,1017.3,318.7,2.1,3.2,335.6,0.00,8.3,14.5,"02:28:32",1
"23/04/28","02:40",0.0,8.8,94.2,1017.5,315.7,2.0,2.5,332.0,0.00,8.0,14.3,"02:30:08",1
"23/04/28","02:50",0.0,8.8,94.3,1017.8,313.7,2.1,3.1,313.0,0.00,8.0,14.2,"02:46:56",1
"23/04/28","03:00",0.0,8.5,94.6,1017.5,309.2,2.3,2.9,314.1,0.00,7.7,14.3,"02:50:40",1
"23/04/28","03:10",0.0,8.5,94.8,1017.3,301.8,2.1,2.6,317.1,0.00,7.8,14.2,"03:09:20",1
"23/04/28","03:20",0.0,8.5,94.9,1017.8,307.5,1.7,2.8,317.5,0.00,7.8,14.1,"03:19:20",1
"23/04/28","03:30",0.0,8.4,95.0,1017.8,307.4,2.2,2.8,320.5,0.00,7.7,14.2,"03:20:56",1
"23/04/28","03:40",0.0,8.3,95.1,1017.5,294.6,1.1,2.1,306.2,0.00,7.6,13.9,"03:38:00",1
"23/04/28","03:50",0.0,8.1,95.4,1017.3,316.3,2.6,3.4,322.7,0.00,7.4,14.1,"03:44:24",1
"23/04/28","04:00",0.0,8.1,95.5,1017.3,311.2,2.5,3.6,314.0,0.00,7.5,13.9,"03:51:36",1
"23/04/28","04:10",0.0,8.2,95.7,1017.8,306.3,2.1,2.4,314.8,0.00,7.6,13.9,"04:04:32",1
"23/04/28","04:20",0.0,8.2,95.8,1017.8,302.2,2.3,3.2,321.9,0.00,7.6,13.9,"04:13:12",1
"23/04/28","04:30",0.0,8.4,96.0,1017.5,298.0,2.2,2.9,312.3,0.00,7.8,13.7,"04:23:20",1
"23/04/28","04:40",0.0,8.5,96.0,1017.5,290.0,2.3,2.8,268.4,0.00,7.9,13.9,"04:32:24",1
"23/04/28","04:50",0.0,8.7,96.2,1017.8,296.8,2.5,3.1,299.0,0.00,8.2,13.9,"04:49:04",1
"23/04/28","05:00",0.0,8.7,96.1,1017.8,314.5,2.3,3.5,318.4,0.00,8.2,13.6,"04:51:44",1
"23/04/28","05:10",0.0,8.2,96.2,1017.8,308.4,2.2,3.2,320.4,0.00,7.7,13.5,"05:08:16",1
"23/04/28","05:20",0.0,7.8,96.4,1017.8,321.9,2.7,3.5,325.4,0.00,7.3,13.8,"05:10:32",1
"23/04/28","05:30",0.0,7.8,96.5,1017.5,304.6,1.5,2.5,322.2,0.00,7.3,13.6,"05:20:56",1
"23/04/28","05:40",0.0,7.6,96.5,1017.5,308.7,2.1,3.2,316.9,0.00,7.1,13.7,"05:35:28",1
"23/04/28","05:50",0.0,7.6,96.9,1017.8,314.1,2.2,2.9,317.9,0.00,7.2,13.4,"05:45:28",1
"23/04/28","06:00",0.0,7.7,96.8,1017.8,308.6,2.0,2.7,328.1,0.00,7.3,13.4,"05:50:16",1
"23/04/28","06:10",0.0,7.5,96.9,1018.0,300.5,2.0,2.7,320.6,0.00,7.1,13.2,"06:01:52",1
"23/04/28","06:20",0.0,7.5,97.0,1017.5,292.0,1.6,1.9,305.8,0.00,7.1,13.4,"06:11:20",1
"23/04/28","06:30",0.0,7.8,97.2,1017.8,315.6,2.2,3.1,319.6,0.00,7.4,13.3,"06:24:00",1
"23/04/28","06:40",0.0,8.2,97.2,1018.0,309.2,2.1,2.5,315.4,0.01,7.8,13.3,"06:37:38",1
"23/04/28","06:50",0.0,8.7,97.2,1018.2,319.1,1.6,2.5,319.3,0.02,8.3,13.3,"06:41:36",1
"23/04/28","07:00",0.0,9.4,97.2,1018.0,302.6,0.7,1.3,297.6,0.03,9.0,13.1,"06:59:22",1
"23/04/28","07:10",0.0,10.3,97.1,1018.5,307.7,1.5,2.2,314.5,0.03,9.9,13.2,"07:02:26",1
"23/04/28","07:20",0.0,10.9,96.9,1018.5,316.0,1.3,1.8,314.0,0.05,10.5,13.3,"07:14:00",1
"23/04/28","07:30",0.0,11.4,96.9,1018.5,325.3,1.1,1.4,327.7,0.07,11.0,13.2,"07:25:52",1
"23/04/28","07:40",0.0,12.6,96.0,1018.7,291.9,0.6,1.1,281.6,0.09,12.0,13.2,"07:39:28",1
"23/04/28","07:50",0.0,12.8,95.6,1019.0,319.0,0.7,1.6,314.8,0.12,12.2,13.0,"07:43:36",1
"23/04/28","08:00",0.0,12.8,95.1,1019.0,243.6,0.3,0.9,124.0,0.16,12.1,13.1,"07:50:24",1
"23/04/28","08:10",0.0,13.7,95.0,1019.0,304.5,0.3,1.1,264.7,0.17,13.0,13.1,"08:08:00",1
"23/04/28","08:20",0.0,13.8,92.9,1019.0,271.5,0.5,0.9,250.9,0.19,12.7,13.0,"08:13:36",1
"23/04/28","08:30",0.0,14.5,92.1,1019.0,285.2,0.5,1.3,338.3,0.22,13.3,13.2,"08:22:40",1
"23/04/28","08:40",0.0,15.0,89.6,1019.2,294.6,0.3,1.0,269.8,0.23,13.3,13.2,"08:33:36",1
"23/04/28","08:50",0.0,16.0,84.3,1019.0,55.7,0.5,1.1,313.7,0.28,13.4,13.2,"08:47:52",1
"23/04/28","09:00",0.0,17.0,77.5,1018.7,246.6,0.3,1.1,226.3,0.30,13.1,13.2,"08:53:36",1
"23/04/28","09:10",0.0,17.6,70.4,1018.7,233.0,0.7,1.3,139.9,0.33,12.2,13.2,"09:04:24",1
"23/04/28","09:20",0.0,17.7,67.8,1018.5,198.3,1.1,2.2,190.2,0.36,11.7,13.2,"09:16:16",1
"23/04/28","09:30",0.0,18.2,66.0,1018.2,172.4,0.5,1.7,185.6,0.39,11.8,13.3,"09:28:56",1
"23/04/28","09:40",0.0,18.6,63.5,1018.2,246.9,0.7,2.0,239.0,0.41,11.6,13.5,"09:38:40",1
"23/04/28","09:50",0.0,19.1,63.9,1018.2,235.4,0.7,2.0,195.2,0.41,12.2,13.5,"09:48:08",1
"23/04/28","10:00",0.0,19.1,61.1,1017.5,107.6,1.1,2.5,117.6,0.45,11.5,13.8,"09:52:16",1
"23/04/28","10:10",0.0,19.5,60.7,1017.5,159.4,1.1,2.4,122.7,0.48,11.8,13.4,"10:03:36",1
"23/04/28","10:20",0.0,20.4,58.4,1017.3,49.3,0.6,1.8,123.5,0.50,12.0,13.8,"10:18:08",1
"23/04/28","10:30",0.0,20.5,58.0,1016.6,180.9,1.2,2.7,175.8,0.52,12.0,13.7,"10:25:28",1
"23/04/28","10:40",0.0,20.5,55.3,1016.8,163.4,1.3,2.8,151.7,0.46,11.3,13.6,"10:35:28",1
"23/04/28","10:50",0.0,20.8,56.0,1016.4,243.8,1.1,2.6,155.3,0.49,11.7,13.9,"10:48:24",1
"23/04/28","11:00",0.0,21.0,54.9,1016.6,160.3,1.5,3.1,115.0,0.53,11.6,14.0,"10:50:48",1
"23/04/28","11:10",0.0,21.6,52.9,1016.4,200.2,1.3,2.9,243.0,0.57,11.6,13.8,"11:03:52",1
"23/04/28","11:20",0.0,21.7,51.8,1016.6,180.1,1.2,3.3,111.8,0.46,11.4,14.2,"11:14:00",1
"23/04/28","11:30",0.0,21.5,51.5,1016.4,151.8,1.6,3.1,121.8,0.48,11.1,14.3,"11:28:08",1
"23/04/28","11:40",0.0,21.7,49.6,1016.1,85.1,1.3,2.8,350.5,0.49,10.8,14.6,"11:38:40",1
"23/04/28","11:50",0.0,22.2,52.4,1016.1,132.2,1.3,4.7,117.2,0.53,12.0,14.4,"11:49:12",1
"23/04/28","12:00",0.0,22.8,48.0,1015.9,73.2,1.2,2.7,157.4,0.63,11.3,14.7,"11:50:08",1
"23/04/28","12:10",0.0,23.0,47.6,1015.6,122.7,2.1,4.4,126.5,0.61,11.3,14.7,"12:06:16",1
"23/04/28","12:20",0.0,23.1,47.0,1015.4,164.8,2.0,3.4,182.6,0.53,11.2,14.8,"12:10:24",1
"23/04/28","12:30",0.0,23.2,44.0,1015.2,141.3,1.8,4.2,164.0,0.50,10.3,15.0,"12:27:36",1
"23/04/28","12:40",0.0,23.8,46.0,1015.2,159.8,2.1,4.3,175.9,0.60,11.5,15.0,"12:31:44",1
"23/04/28","12:50",0.0,23.9,41.0,1015.2,145.7,2.0,4.0,130.6,0.60,9.9,15.0,"12:44:08",1
"23/04/28","13:00",0.0,24.0,37.8,1014.9,141.0,2.2,4.1,172.0,0.58,8.8,15.3,"12:53:52",1
"23/04/28","13:10",0.0,24.6,38.1,1014.7,144.2,2.6,4.5,178.8,0.64,9.4,15.4,"13:06:48",1
"23/04/28","13:20",0.0,24.6,37.3,1014.7,150.4,2.3,5.0,117.8,0.58,9.1,15.3,"13:14:16",1
"23/04/28","13:30",0.0,24.7,36.1,1014.2,184.8,3.0,5.7,225.5,0.56,8.7,15.6,"13:25:04",1
"23/04/28","13:40",0.0,24.9,29.2,1014.2,223.0,2.5,4.8,235.5,0.58,5.8,15.8,"13:38:16",1
"23/04/28","13:50",0.0,25.0,26.3,1014.0,245.5,2.5,5.0,223.8,0.55,4.4,15.9,"13:47:04",1
"23/04/28","14:00",0.0,24.8,22.9,1014.0,242.1,2.3,4.8,240.7,0.53,2.3,15.9,"13:56:48",1
"23/04/28","14:10",0.0,25.3,29.4,1013.3,213.1,1.8,4.1,228.9,0.48,6.2,16.0,"14:07:52",1
"23/04/28","14:20",0.0,25.1,25.1,1013.3,176.7,2.8,5.4,183.2,0.53,3.8,16.1,"14:17:28",1
"23/04/28","14:30",0.0,24.9,21.8,1013.3,225.6,2.5,5.6,231.1,0.46,1.7,16.2,"14:24:24",1
"23/04/28","14:40",0.0,25.6,27.8,1012.8,224.1,1.5,3.6,129.9,0.45,5.7,16.4,"14:36:48",1
"23/04/28","14:50",0.0,25.3,29.1,1012.6,250.5,2.1,4.4,221.1,0.48,6.1,16.4,"14:48:32",1
"23/04/28","15:00",0.0,24.5,33.8,1012.6,210.6,2.1,4.1,234.3,0.30,7.6,16.5,"14:55:28",1
"23/04/28","15:10",0.0,25.0,33.7,1012.3,190.3,2.3,4.1,222.0,0.47,8.0,16.6,"15:06:40",1
"23/04/28","15:20",0.0,25.1,36.3,1012.3,157.8,2.6,4.4,153.0,0.41,9.2,16.4,"15:15:20",1
"23/04/28","15:30",0.0,25.1,37.0,1012.6,184.8,3.1,6.5,195.2,0.47,9.4,16.6,"15:21:12",1
"23/04/28","15:40",0.0,25.1,37.6,1012.3,174.6,2.8,4.8,183.7,0.45,9.7,16.7,"15:33:36",1
"23/04/28","15:50",0.0,24.5,37.9,1012.1,167.0,3.2,5.7,170.9,0.38,9.3,16.8,"15:40:24",1
"23/04/28","16:00",0.0,24.6,38.5,1012.3,157.6,2.7,6.0,142.6,0.32,9.6,16.9,"15:57:36",1
"23/04/28","16:10",0.0,24.1,38.1,1012.1,157.5,2.8,5.9,142.1,0.26,9.0,16.8,"16:09:36",1
"23/04/28","16:20",0.0,24.0,39.3,1012.1,164.4,2.7,5.0,155.4,0.20,9.4,16.8,"16:10:24",1
"23/04/28","16:30",0.0,24.4,39.1,1011.9,170.7,2.2,3.9,226.2,0.29,9.6,17.0,"16:27:20",1
"23/04/28","16:40",0.0,24.3,41.5,1012.1,197.4,2.0,4.2,129.4,0.22,10.4,17.1,"16:31:28",1
"23/04/28","16:50",0.0,24.7,40.6,1011.6,249.3,1.8,4.0,238.7,0.31,10.5,17.0,"16:47:20",1
"23/04/28","17:00",0.0,24.4,38.8,1011.9,253.9,2.0,4.8,234.5,0.25,9.5,17.0,"16:53:52",1
"23/04/28","17:10",0.0,24.4,39.9,1011.4,245.6,1.3,2.8,260.6,0.20,9.9,17.1,"17:04:24",1
"23/04/28","17:20",0.0,23.9,39.9,1011.4,169.3,2.2,3.2,163.5,0.18,9.5,17.1,"17:13:36",1
"23/04/28","17:30",0.0,23.7,42.0,1011.9,155.7,2.2,4.0,126.3,0.16,10.1,17.3,"17:20:48",1
"23/04/28","17:40",0.0,23.2,41.5,1011.6,175.2,2.3,4.8,135.1,0.11,9.5,17.4,"17:36:24",1
"23/04/28","17:50",0.0,23.0,43.5,1012.1,205.1,1.7,3.1,191.7,0.07,10.0,17.4,"17:42:56",1
"23/04/28","18:00",0.0,23.1,44.8,1012.1,226.1,1.1,2.1,189.5,0.06,10.5,17.3,"17:50:24",1
"23/04/28","18:10",0.0,22.7,45.7,1012.3,265.8,1.8,4.0,239.6,0.05,10.4,17.3,"18:08:08",1
"23/04/28","18:20",0.0,22.4,46.8,1012.1,272.5,1.7,3.5,336.3,0.05,10.5,17.4,"18:18:56",1
"23/04/28","18:30",0.0,22.2,48.5,1012.8,268.3,1.5,3.6,309.0,0.03,10.9,17.2,"18:21:12",1
"23/04/28","18:40",0.0,21.9,48.5,1012.8,264.5,1.6,4.5,249.3,0.01,10.6,17.3,"18:37:28",1
"23/04/28","18:50",0.0,21.6,49.3,1012.3,273.2,1.6,3.2,250.4,0.00,10.6,17.4,"18:41:20",1
"23/04/28","19:00",0.0,21.1,50.8,1012.6,259.8,1.1,2.2,244.0,0.00,10.6,17.3,"18:52:16",1
"23/04/28","19:10",0.0,20.7,52.5,1013.0,292.6,1.0,2.8,246.3,0.00,10.7,17.3,"19:00:56",1
"23/04/28","19:20",0.0,20.1,56.0,1013.0,321.3,1.2,3.2,338.0,0.00,11.1,17.2,"19:18:08",1
"23/04/28","19:30",0.0,19.3,60.5,1012.8,343.5,1.3,2.1,341.7,0.00,11.5,17.2,"19:21:36",1
"23/04/28","19:40",0.0,18.5,63.6,1013.3,337.5,1.6,2.1,338.4,0.00,11.5,17.2,"19:35:20",1
"23/04/28","19:50",0.0,18.2,64.2,1013.5,329.2,2.3,3.5,335.4,0.00,11.4,17.2,"19:46:32",1
"23/04/28","20:00",0.0,18.2,64.2,1013.0,314.8,2.1,3.5,328.2,0.00,11.4,16.9,"19:55:20",1
"23/04/28","20:10",0.0,17.9,65.2,1013.5,330.6,1.7,2.6,335.2,0.00,11.3,17.1,"20:03:12",1
"23/04/28","20:20",0.0,17.6,66.4,1013.3,330.6,1.8,2.8,339.1,0.00,11.3,17.0,"20:17:12",1
"23/04/28","20:30",0.0,17.3,67.5,1013.5,326.8,2.5,3.1,321.5,0.00,11.3,17.2,"20:22:48",1
"23/04/28","20:40",0.0,17.1,67.4,1013.8,326.3,2.2,3.5,338.6,0.00,11.1,17.0,"20:36:16",1
"23/04/28","20:50",0.0,17.0,67.3,1014.0,339.8,1.6,2.7,328.0,0.00,10.9,16.8,"20:48:16",1
"23/04/28","21:00",0.0,17.0,67.5,1014.5,334.6,1.6,4.9,346.0,0.00,11.0,16.8,"20:59:20",1
"23/04/28","21:10",0.0,16.9,67.4,1014.7,350.0,1.6,3.3,20.9,0.00,10.9,16.8,"21:01:44",1
"23/04/28","21:20",0.0,16.9,67.3,1014.2,342.7,1.6,2.7,334.0,0.00,10.8,16.7,"21:13:28",1
"23/04/28","21:30",0.0,16.9,67.6,1014.5,334.4,1.3,2.8,339.8,0.00,10.9,16.7,"21:22:10",1
"23/04/28","21:40",0.0,16.4,68.7,1014.7,332.9,1.2,2.1,330.7,0.00,10.7,16.6,"21:34:16",1
"23/04/28","21:50",0.0,15.8,69.9,1014.7,325.4,1.0,2.2,293.4,0.00,10.4,16.7,"21:47:12",1
"23/04/28","22:00",0.0,15.5,71.7,1014.7,299.2,1.3,2.1,298.8,0.00,10.5,16.6,"21:59:36",1
"23/04/28","22:10",0.0,15.4,73.0,1015.2,291.8,2.1,2.7,311.0,0.00,10.6,16.4,"22:04:00",1
"23/04/28","22:20",0.0,15.3,73.7,1015.2,292.2,1.5,2.6,310.8,0.00,10.7,16.3,"22:11:04",1
"23/04/28","22:30",0.0,15.3,74.5,1015.4,334.1,2.0,4.0,344.4,0.00,10.8,16.2,"22:28:14",1
"23/04/28","22:40",0.0,15.5,74.7,1015.4,324.5,2.6,3.7,320.0,0.00,11.1,16.5,"22:37:28",1
"23/04/28","22:50",0.0,15.3,74.9,1015.2,330.3,1.8,3.1,333.1,0.00,10.9,16.4,"22:43:00",1
"23/04/28","23:00",0.0,14.9,75.9,1015.2,326.9,1.7,2.4,320.0,0.00,10.7,16.3,"22:55:06",1
"23/04/28","23:10",0.0,14.4,77.4,1015.4,273.5,0.8,1.4,337.1,0.00,10.5,16.3,"23:01:36",1
"23/04/28","23:20",0.0,14.3,78.7,1015.4,277.9,1.8,3.1,324.4,0.00,10.7,16.3,"23:19:28",1
"23/04/28","23:30",0.0,14.3,79.4,1015.2,321.3,2.1,2.8,328.0,0.00,10.8,16.2,"23:26:16",1
"23/04/28","23:40",0.0,14.0,80.0,1014.9,327.8,1.3,1.9,325.6,0.00,10.6,16.1,"23:32:56",1
"23/04/28","23:50",0.0,13.4,80.9,1014.9,281.7,0.7,1.4,265.9,0.00,10.2,16.1,"23:44:26",1
"23/04/28","24:00",0.0,13.2,82.4,1014.5,288.7,1.6,2.1,263.4,0.00,10.3,16.1,"23:51:24",1
